Погода в Казачинске

Погода в Казачинске : погода сейчас, прогноз погоды и архив. Всё, что Вы хотите узнать о погоде в Казачинске!

Хотите узнать прогноз погоды в Казачинске? Тогда Вам сюда: Погода в Казачинске

Поиск расширенной информации на нашем сайте:

Другие новости

Новости СМИ2

Главная страница сайта

Новости сайта

03.07.2017

Напоминаем, что на нашем специализированном сайте Метеоцентр.Азия вы можете получить высокодетализированные автоматические прогнозы погоды по пунктам России, СНГ и мира в авиационном формате (включающие направление и скорость ветра, видимость, явления погоды, количество и форму облачности, нижнюю и верхнюю границу облачности).

Рекомендуем: Только отдых в тунисе можно назвать полноценным отдыхом души и тела.

Погода в Казачинске - сегодня

Время (UTC), дата Ветер
(°,м/с) 
Видим.   Явления Облачность Т
(°С)
Тd
(°С)
f(%) Тe
(°С)
Pmin
(гПа)
dP
(гПа)
Po
(мм)
O2
(г/м3)
Тmin Tmax R s Состояние
почвы
15 21.09.17 340 (С) н/о    10/10 600 м кучево-дожд. 
[Cb cap]
+6.8 -3 50 +7  1008.9  -1.2  725  285           
18 21.09.17 150 (ЮВ) н/о    10/10 600 м кучево-дожд. 
[Cb cap]
+4.7 -1 66 +6  1008  -1.2  724  287           
21 21.09.17 тихо ()   н/о    10/10 600 м кучево-дожд. 
[Cb cap]
+3.9 +0.5 78 +4  1006.9  -1  723  287           
00 22.09.17 320 (СЗ) 20000 м    3/0 средняя, верхняя 
[Ac lent|Ci fib]
+4.2 -1.6 66 +5  1005.9  -1  722  287           
03 22.09.17 050 (СВ) 20000 м    3/1 1000 м верхняя 
[Cu med, cong|Ci fib]
+8.9 -3.4 42 +8  1004.2  -1  721  282           
06 22.09.17 010 (С) 20000 м    9/9 600 м кучево-дожд. 
[Cb cap]
+10.1 -5.1 34 +10  1002.7  -1.3  720  280           
09 22.09.17 040 (СВ) 20000 м    9/9 1000 м 
[Sc]
+9.9 -5 35 +9  1003  0.3  721  281           
12 22.09.17 тихо ()   н/о    5/0 верхняя 
[Ci fib]
+2.8 -2.5 68 +3  1004.9  0.8  721  288    +11       
15 22.09.17 210 (ЮЗ) н/о    ясно 
-1.7 -3.8 86 -1  1006.2  0.5  722  293           
18 22.09.17 210 (ЮЗ) н/о    ясно 
-3.5 -4.6 92 -3  1006.9  0.4  722  295           
21 22.09.17 180 (Ю) н/о    3/0 верхняя 
[Ci fib]
-3.6 -5 90 -3  1008.2  1.2  723  296           
00 23.09.17 070 (В) 20000 м    10/10 600 м кучево-дожд. 
[Cb cap]
-1.1 -3 87 -1  1009.6  1.8  724  293  -3.8         
03 23.09.17 230 (ЮЗ) 20000 м    9/4 600 м средняя, верхняя 
[Sc|Ac cast|Ci fib]
+3.8 -1.7 67 +5  1009.6  0.7  725  288           
06 23.09.17 340 (С) 20000 м    9/9 600 м кучево-дожд. 
[Cb cap]
+8.7 -6.3 34 +8  1009.2  0.4  725  284           
09 23.09.17 050 (СВ) 20000 м    9/9 600 м кучево-дожд. 
[Cb cap]
+8.2 -5.6 37 +8  1011.1  1.7  726  285           
12 23.09.17 тихо ()   н/о    9/9 600 м кучево-дожд. 
[Cb cap]
+3.8 -1.9 66 +4  1013.1  1.2  727  289    +9.2       
15 23.09.17 тихо ()   н/о    8/8 600 м кучево-дожд. 
[Cb cap]
+1.8 -2.3 74 +2  1013.8  0.5  728  291           
18 23.09.17 230 (ЮЗ) н/о    9/8 600 м кучево-дожд., верхняя 
[Cb cap|Ci fib]
+1.4 -2 78 +2  1014  728  292           
21 23.09.17 330 (СЗ) н/о    4/3 600 м кучево-дожд., верхняя 
[Cb cap|Ci fib]
-0.2 -3 81 1014.4  0.2  728  294           
00 24.09.17 тихо ()   20000 м    8/6 1000 м верхняя 
[Sc|Ci fib]
-2 -3.6 89 -2  1015.5  0.8  728  296  -3.2         
03 24.09.17 040 (СВ) 20000 м    1/0 верхняя 
[Ci fib]
+6.8 -4 46 +7  1012.8  -1.3  727  286           
06 24.09.17 050 (СВ) 20000 м    9/1 1000 м верхняя 
[Cu hum|Ci sp]
+9.5 -7 30 +10  1010.5  -1.7  726  283           
09 24.09.17 020 (С) 20000 м    9/3 600 м кучево-дожд., верхняя 
[Cb cap|Ci fib]
+8.7 -7.1 32 +8  1008.9  -1.7  725  284           
12 24.09.17 020 (С) н/о    10/10 600 м кучево-дожд. 
[Cb cap]
+6.1 -4.9 45 +5  1009.8  0.5  725  286    +9.9       
15 24.09.17 010 (С) 4{10}  н/о    10/10 600 м кучево-дожд. 
[Cb cap]
+4.8 -5.5 47 +3  1009.6  -0.5  725  288           
Время (UTC), дата Ветер
(°,м/с) 
Видим.   Явления Облачность Т
(°С)
Тd
(°С)
f(%) Тe
(°С)
Pmin
(гПа)
dP
(гПа)
Po
(мм)
O2
(г/м3)
Тmin Tmax R s Состояние
почвы

Для получения пояснительной информации подведите курсор к названию столбца.

ПОГОДА в Казачинске - архив

Всё, что Вы хотите узнать о погоде в Казачинске - удобно и подробно!

Выберите нужную дату (начиная с 1 января 2015* года) и нажмите кнопку "Найти".
Будут отображены архивные сводки погоды по пункту Казачинск, начиная с указанной даты.


Отображать данные в формате CSV (для использования в таблицах Excel)


Внимание! Наш архив погоды предназначен исключительно для личного некоммерческого использования в познавательных целях. Если Вам необходимы официальные справки о состоянии погоды (для производственных, юридических, коммерческих и т.п. целей), обращайтесь в органы Росгидромета.

*Примечание: данная дата относится к архиву по метеостанциям СССР (Россия, СНГ, Балтия).
Архив по метеостанциям Зарубежной Европы и Азии (кроме Китая) хранится 10 дней, по другим регионам земного шара (Китай, Африка, Америка, Австралия, Океания) - 1 день.

Казачинск - район местоположения метеостанции


Название, широта, долгота, высота метеостанции:
Казачинск 56.3°ш. 107.6°д. 362 м над ур. моря [Российская Федерация]

Дополнительная информация

В oтличие oт бoльшинства пoгoдных сайтoв мы публикуем пoдрoбную метеoинфoрмацию в детальнoм прoфессиoнальнoм фoрмате.

Характеристики температуры и влажнoсти вoздуха измеряются на высoте 2 м в тени вдали oт зданий и деревьев.
Скoрoсть ветра измеряется на высoте 10 м (на урoвне рoста челoвека скoрoсть ветра ниже в 1.5-2 раза). Если метеoстанция нахoдится в гoрoде или в лесу, тo скoрoсть ветра занижена на 2-4 м/с пo сравнению с oткрытым местoм. Скoрoсть ветра над акватoриями крупных рек и oзёр, а также на вершинах хoлмoв на 2-5 м/с выше, чем в oбычных услoвиях.
Атмoсфернoе давление в разных тoчках местнoсти мoжет значительнo oтличаться oт давления на метеoстанции, в зависимoсти oт услoвий рельефа (при пoдъёме на 10 м давление пoнижается примернo на 1 мм рт.ст.).